Showing default

ICEYE-X72, 68504

Orbit data source: Space-Track

ICEYE-X72, 68504 is a payload satellite owned by ICEYE (FI) in SSO that was launched on Mon, 30 Mar 2026 UTC via an FALCON 9 launch vehicle from the Air Force Western Test Range (AFWTR). Payload-class satellites include a variety of spacecraft equipped with specific instruments for various scientific and technological missions. These include communications satellites like Starlink; space stations such as the ISS; scientific satellites like the Hubble; Earth observation satellites from companies like Planet Labs, Umbra, and HawkEye 360; GPS; miniature CubeSats for education and research; and military/defense satellites.

Loading next visibility...
Identifier
68504, 2026-067CS
Orbit
SSO
Country
Flag of FIFI / FIN
Related business
Manufacturer
ICEYE
Mission
Operational spacecraft
Bus & Motor
ICEYE, Unknown motor
Mass
120 kg wet, 120 kg dry
Launch date (UTC)
2026-03-30 (3 months ago)
Launch vehicle
FALCON 9
Launch site
Air Force Western Test Range (AFWTR)
Object type
Payload
Rocket body
Debris
Shape & HBR
Unknown shape, 14.5 m
Radar Cross Section
Medium (>0.1 m² and <1 m²)

Expand to show TLE details & history
Last TLE update: 2 days ago

TLE from 2 days ago
0 ICEYE-X72
1 68504U 26067CS  26171.19187757  .00095480  00000-0  91467-2 0  9991
2 68504  97.7631 129.4467 0001594  63.5299 296.6084 14.92665380 12174
Epoch: 2026-06-20T04:36Z
TLE epoch observation values (Epoch: 2026-06-20T04:36:18.222Z)
Latitude
0.00004°
Longitude
151.96073°
Altitude
592.174 km
Speed
7.564 km/s
True Right ascension
08h 37m 47s
True Declination
0° 00' 00"
Sunlit
Object was in daylight at epoch
Visualization orbit readout
Latitude
Unknown
Longitude
Unknown
Altitude
Unknown
Speed
Unknown
Apparent Right ascension
Unknown
Apparent Declination
Unknown
Sunlit
N/A
Visualization observer readout
Local Sidereal Time
10:53:35
Azimuth
Unknown
Elevation
Unknown
Doppler factor
Unknown
Orbital elements
Apogee altitude
587.757 km
Perigee altitude
585.536 km
Semi-major axis
6,964.783 km
Eccentricity
0.00016
Inclination
97.7631°
RAAN
129.4467°
Arg. of periapsis
63.5299°
True anomaly
296.59207°
Mean anomaly
296.6084°
Eccentric anomaly
296.60023°
Mean motion
3.73406 °/min
Orbital period
96.41 mins
BSTAR
0.0091467
Loading maneuver chart data...
Computing Atmospheric mass density...
Loading historical data...
Loading historical data...
Loading historical data...
Loading historical data...
Loading historical data...
Loading historical data...
Loading historical data...

Documentation

Showing up to 5 results
|